www.pogodaiklimat.ru

Погода и климат >> Архив погоды >> Россия >> Камчатский край >> Семячик


АРХИВ ПОГОДЫ в Семячике

Время (UTC), дата Ветер
(напр.,м/с)
 
Видим.   Явления Облачность Т
(С)
Тd
(С)
f
(%)
Тe
(С)
Тes
(С)
Комфортность P
(гПа)
Po
(гПа)
Тmin
(С)
Tmax
(С)
R
(мм)
R24
(мм)
S
(см)
12 15.01 З 6 20 км ясно -8.8 -15.4 59 -17 -17 1014.2 1010.7
15 15.01 З 1 20 км ясно -10.3 -15.5 66 -12 -12 1014.9 1011.3
18 15.01 З 2 20 км ясно -10.4 -15.4 67 -15 -15 1015.3 1011.7
21 15.01 З 2 50 км 8/8 600 м
[Sc]
-8.7 -14.6 62 -13 -13 1015.9 1012.3 -11.0 12
00 16.01 ЮЗ 1 50 км 8/8 600 м
[Sc]
-7.3 -10.9 75 -10 -9 1016.5 1013.0
03 16.01 С 4 50 км 9/9 600 м
[Sc]
-6.6 -11.9 66 -13 -13 1014.8 1011.3
06 16.01 СЗ 3 50 км 10/10 600 м
[Sc]
-7.7 -10.6 80 -13 -13 1014.9 1011.3
09 16.01 З 2 20 км 10/10 600 м
[Sc]
-7.8 -11.5 75 -12 -12 1014.0 1010.5 -5.1
12 16.01 СЗ 1 20 км 9/4 600 м
[Sc Ci fib]
-6.8 -10.3 76 -9 -9 1012.5 1009.0
15 16.01 С 3 20 км 9/4 600 м
[Sc Ci sp]
-5.8 -8.0 84 -11 -11 1010.3 1006.8
18 16.01 СВ 11-14
{14}
20 км 10/10 600 м
[Sc]
-3.8 -4.9 92 -14 -14 1006.4 1003.0
21 16.01 В 10-13
{18}
4000 м слаб. ливневой снег {метель} 10/10 300 м
[Cb cap]
-1.3 -5.4 74 -10 -10 1003.2 999.8 -7.9 0.0 11
00 17.01 СВ 16-21
{22}
500 м сильная метель {ливн. осадки} ?/? -3.2 -3.6 97 -14 -14 999.0 995.6
03 17.01 СВ 22-26
{29}
500 м сильная метель ?/? -3.4 -3.7 98 -16 -16 991.2 987.8
06 17.01 СВ 21-26
{31}
500 м сильная метель ?/? -3.0 -3.3 98 -15 -15 987.5 984.1
09 17.01 СВ 9-14
{28}
20 км позёмок {ливн. осадки} 10/10 300 м
[St]
-2.2 -2.4 99 -11 -11 988.8 985.4 -1.2 18
12 17.01 З 8-13
{15}
1000 м ливневой снег {метель} 10/10 300 м
[Cb cap]
-6.3 -6.8 96 -16 -16 990.5 987.1
15 17.01 СЗ 13-18
{19}
20 км позёмок {ливн. осадки} 10/10 600 м
[Sc]
-8.9 -12.9 73 -20 -20 992.3 988.8
18 17.01 СЗ 12-18
{21}
20 км позёмок {ливн. осадки} 10/10 600 м
[Sc]
-9.9 -16.5 58 -21 -21 993.7 990.2
21 17.01 З 9-14
{19}
50 км ясно -9.3 -17.2 53 -19 -19 996.1 992.6 -10.0 2 12
00 18.01 СЗ 6
{16}
50 км {метель} ясно -7.0 -16.0 49 -15 -14 997.1 993.7
03 18.01 З 3 50 км ясно -5.4 -14.5 49 -10 -9 997.1 993.7
06 18.01 С 5 50 км ясно -5.5 -9.9 71 -13 -13 996.9 993.5
09 18.01 СВ 11-13
{13}
20 км 10/10 600 м
[Sc]
-3.1 -6.0 80 -12 -12 996.7 993.3 -3.1
12 18.01 СВ 9-11
{15}
4000 м слаб. ливневой снег {метель} 10/10 300 м
[Cb cap]
-4.2 -6.9 81 -13 -13 997.2 993.8
15 18.01 СЗ 4
{12}
20 км {ливн. осадки, метель} 10/10 600 м
[Sc]
-5.1 -8.2 79 -11 -11 996.5 993.1
18 18.01 СВ 12-16
{19}
20 км позёмок {ливн. осадки} 10/10 600 м
[Sc]
-3.2 -6.2 80 -13 -13 993.6 990.3
21 18.01 СВ 9-13
{18}
50 км {метель} 10/10 600 м
[Sc]
-2.0 -7.9 64 -10 -10 992.7 989.3 -5.3 0.4 12
00 19.01 С 5
{13}
50 км {метель} 10/10 600 м
[Sc]
-1.6 -7.2 66 -8 -8 991.5 988.1
03 19.01 С 6
{11}
4000 м слаб. ливневой снег 10/10 300 м
[Cb cap]
-0.5 -5.2 70 -7 -7 988.4 985.1
06 19.01 С 8-13
{17}
20 км позёмок {ливн. осадки} 10/10 600 м
[Sc]
+0.2 -4.1 73 -7 -7 985.8 982.5
09 19.01 С 7-10
{13}
20 км {метель} 10/10 600 м
[Sc]
-0.4 -3.9 77 -7 -7 987.5 984.1 +0.2 0.3
12 19.01 СВ 13-16
{17}
20 км позёмок {ливн. осадки} 10/10 600 м
[Sc]
-0.1 -1.4 91 -9 -9 988.1 984.8
15 19.01 СВ 9-13
{17}
20 км позёмок 10/10 600 м
[Sc]
+0.1 -1.5 89 -8 -8 986.9 983.6
18 19.01 СВ 12-14
{24}
2000 м слаб. ливневой снег {метель} 10/10 300 м
[Cb cap]
+0.5 -1.2 88 -8 -8 986.4 983.1
21 19.01 СВ 10-11
{15}
2000 м слаб. ливневой снег {метель} 10/10 300 м
[Cb cap]
-0.2 -0.5 98 -9 -9 987.8 984.5 -1.8 1 14
00 20.01 СВ 11-14
{14}
50 км в посл. час ливневой снег {метель} 10/10 600 м
[Sc]
+0.5 -0.2 95 -8 -8 987.8 984.5
03 20.01 СВ 10-15
{16}
50 км 10/10 600 м
[Sc]
+1.1 -1.9 80 -7 -7 986.1 982.8
06 20.01 СВ 15-21
{21}
50 км 6/6 600 м
[Sc]
+1.8 -4.0 65 -7 -7 983.3 980.0
09 20.01 СВ 17-23
{28}
20 км 6/6 600 м
[Sc]
+1.6 -3.9 67 -7 -7 980.4 977.1 +2.3 0.6
12 20.01 В 15-20
{31}
1000 м ливневой снег {метель} 10/10 300 м
[Cb cap]
+0.2 -0.0 99 -10 -10 981.7 978.4
15 20.01 В 10-15
{23}
4000 м ливневой снег {метель} 10/10 300 м
[Cb cap]
+0.4 -1.8 85 -8 -8 989.2 985.9
18 20.01 В 8-13
{18}
20 км в посл. час ливневой снег {метель} 10/10 600 м
[Sc]
+0.3 -0.8 92 -7 -7 994.0 990.6
21 20.01 В 5
{17}
50 км 8/8 600 м
[Sc]
+0.8 -0.7 90 -5 -5 997.3 993.9 -0.6 2 10
00 21.01 СВ 7 50 км 10/10 600 м
[Sc]
+0.5 -0.7 92 -7 -7 998.9 995.5
03 21.01 СВ 8
{12}
50 км 10/10 600 м
[Sc]
+0.5 -2.2 82 -7 -7 998.2 994.9
06 21.01 СВ 7
{13}
50 км 10/10 600 м
[Sc]
+0.3 -3.1 78 -7 -7 997.0 993.6
09 21.01 С 10-11
{11}
500 м сильная метель {ливн. осадки} ?/? -0.6 -0.8 99 -9 -9 996.4 993.0 +1.0 3
12 21.01 СВ 14-17
{19}
500 м сильная метель {ливн. осадки} ?/? -0.3 -0.3 100 -10 -10 996.6 993.3
15 21.01 СВ 15-20
{23}
500 м сильная метель ?/? -0.4 -0.4 100 -10 -10 997.3 993.9
18 21.01 СВ 13-16
{22}
20 км слаб. ливневой снег {метель} 10/10 300 м
[Cb cap]
-0.5 -0.5 100 -10 -10 998.4 995.1
21 21.01 СВ 14-17
{22}
50 км в посл. час ливневой снег {метель} 10/10 600 м
[Sc]
-0.3 -0.4 99 -10 -10 1000.2 996.8 -0.6 11 13
00 22.01 СВ 16-19
{19}
2000 м слаб. ливневой снег {метель} 10/10 600 м
[Cb cap]
+0.3 -0.3 96 -10 -10 1001.8 998.4
03 22.01 СВ 10-12
{20}
20 км {ливн. осадки, метель} 10/10 600 м
[Sc]
+0.1 -1.6 88 -8 -8 1002.8 999.4
06 22.01 СВ 14-17
{20}
50 км {ливн. осадки, метель} 6/6 600 м
[Sc]
-0.2 -2.7 83 -10 -10 1003.6 1000.2
09 22.01 С 7
{21}
20 км 10/10 600 м
[Sc]
-0.8 -4.4 77 -8 -8 1005.2 1001.9 +0.5 0.3

 

Местоположение метеостанции Семячик (Камчатский край, Россия): широта 54.12 долгота 159.90 высота над уровнем моря 27 м.

В архиве по умолчанию представлена погода в Семячике за последнюю неделю. Архивные данные за месяц целиком и за предыдущие месяцы, начиная с января 2011 года, Вы можете получить, выбрав интересующий диапазон дат из раскрывающегося списка и нажав кнопку "Ввод!".


*Определитесь, кто Вы:
робот инопланетянин человек

Внимание! Время в таблицах - всемирное. Для получения местного времени необходимо прибавить поправку, которая равна 12 ч.

Смотрите также архив погоды в соседних городах и на ближайших метеорологических станциях:

Погода в Мильково (Камчатский край, Россия) (110 км)
Погода в Пущино (Камчатский край, Россия) (124 км)
Погода в Долиновке (Камчатский край, Россия) (125 км)
Погода в Петропавловск-Камч. 2 (Камчатский край, Россия) (148 км)
Погода в Сосновке (Камчатский край, Россия) (157 км)
Погода в Петропавловском Маяке (Камчатский край, Россия) (159 км)
Погода в Петропавловск-Камчатском (Камчатский край, Россия) (163 км)
Погода в Начиках (Камчатский край, Россия) (183 км)
Погода в Козыревске (Камчатский край, Россия) (215 км)
Погода в Эссо (Камчатский край, Россия) (215 км)

Пояснения к столбцам:

Ветер - указаны скорость ветра в м/с - средняя за 10 мин, порывы в срок и между сроками (в фигурных скобках) и направление, откуда дует ветер: С - северный, СВ - северо-восточный, В - восточный, ЮВ - юго-восточный, Ю - южный, ЮЗ - юго-западный, З - западный, СЗ - северо-западный.
Видимость - горизонтальная дальность видимости в метрах или километрах. При видимости от 1 до 10 км при отсутствии осадков обычно наблюдается дымка, при ухудшении видимости до 1 км и менее - туман. В сухую погоду видимость может ухудшаться дымом, пылью или мглою.
Явления - указаны атмосферные явления, наблюдавшиеся в срок или в последний час перед сроком; фигурными скобками обозначены явления, наблюдавшиеся между сроками (за 1-3 часа до срока); квадратными скобками обозначены град или гололедные отложения с указанием их диаметра в мм.
Облачность - указаны через наклонную черту общая и нижняя облачность в баллах и высота нижней границы облаков в метрах; квадратными скобками обозначены формы облаков: Ci - перистые, Cs - перисто-слоистые, Cc - перисто-кучевые, Ac - высококучевые, As - высокослоистые, Sc - слоисто-кучевые, Ns - слоисто-дождевые, Cu - кучевые, Cb - кучево-дождевые. Подробнее классификацию облаков см. в Атласе облаков (PDF).
T - Температура воздуха - температура, измеренная на высоте 2 м над землей.
Td - Температура точки росы - температура, при понижении до которой содержащийся в воздухе водяной пар достигнет насыщения.
f - Относительная влажность воздуха - влажноcть воздуха, измеренная на высоте 2 м над землей.
Te - Эффективная температура - температура, которую ощущает одетый по сезону человек в тени. Характеристика душности погоды. При расчете учитывается влияние влажности воздуха и скорости ветра на теплоощущения человека.
Tes - Эффективная температура на солнце - температура, которую ощущает человек, с поправкой на солнечный нагрев. Характеристика знойности погоды. Зависит от высоты солнца над горизонтом, облачности и скорости ветра. Ночью, в пасмурную погоду, а также при ветре 12 м/с и более поправка равна нулю.
P - Атмосферное давление - приведенное к уровню моря атмосферное давление.
Po - Атмосферное давление - измеренное на уровне метеостанции атмосферное давление.
Tmin - Минимальная температура - минимум температуры воздуха на высоте 2 м над землей.
Tmax - Максимальная температура - максимум температуры воздуха на высоте 2 м над землей.
R - Количество осадков - Количество выпавших осадков за период времени, мм. При наведении курсора мыши на число - период времени, за который выпало указанное количество осадков.
R24 - Количество осадков - Количество выпавших осадков за 24 часа, мм.
S - Снежный покров - Высота снежного покрова, см. При наведении курсора мыши на число - состояние снежного покрова и степень покрытия местности в баллах.